Weather History for Flag Island, MN

Change the Weather History Date:

Thursday, May 2, 2013

  Actual Average Record
Temperature  
Mean Temperature 30 °F -  
Max Temperature 33 °F 50 °F 66 °F (2006)
Min Temperature 26 °F 33 °F 23 °F (2002)
Degree Days  
Heating Degree Days 36    
Moisture  
Dew Point 22 °F    
Average Humidity 70    
Maximum Humidity 93    
Minimum Humidity 56    
Precipitation  
Precipitation 0.00 in - - ()
Sea Level Pressure  
Sea Level Pressure 30.60 in    
Wind  
Wind Speed 9 mph (North)    
Max Wind Speed 14 mph    
Max Gust Speed 9 mph    
Visibility 9 miles    
Events Snow    
Averages and records for this station are not official NWS values.
T = Trace of Precipitation, MM = Missing Value Source: NWS Daily Summary

Daily Weather History Graph

Daily Weather History Graph

Search for Another Location

Airport:

Trip Planner

Search our weather history database for the weather conditions in past years. The results will help you decide how hot, cold, wet, or windy it might be!

Date:

Astronomy

May. 02, 2013 Rise Set
Actual Time 5:55 AM CDT 8:38 PM CDT
Civil Twilight 5:19 AM CDT 9:14 PM CDT
Nautical Twilight 4:33 AM CDT 10:01 PM CDT
Astronomical Twilight 3:38 AM CDT 10:56 PM CDT
Moon 2:23 AM CDT (5/2) 12:50 PM CDT (5/2)
Length of Visible Light 15h 55m
Length of Day
14h 42m
Waning Gibbous, 47% of the Moon is Illuminated
May 2
Waning Gibbous
May 9
New
May 17
First Quarter
May 24
Full
May 31
Last Quarter

Hourly Weather History & Observations

Time (CDT) Temp. Windchill Dew Point Humidity Pressure Visibility Wind Dir Wind Speed Gust Speed Precip Events Conditions
12:14 AM 28.4 °F 17.5 °F 23.0 °F 80% 30.58 in 10.0 mi NW 13.8 mph - N/A   Overcast
12:33 AM 28.4 °F 17.5 °F 23.0 °F 80% 30.58 in 10.0 mi NW 13.8 mph - N/A   Overcast
12:53 AM 28.4 °F 18.5 °F 23.0 °F 80% 30.58 in 10.0 mi NW 11.5 mph - N/A   Overcast
1:14 AM 28.4 °F 19.7 °F 21.2 °F 74% 30.58 in 10.0 mi NW 9.2 mph - N/A   Overcast
1:33 AM 28.4 °F 19.1 °F 21.2 °F 74% 30.58 in 10.0 mi NW 10.4 mph - N/A   Overcast
1:53 AM 28.4 °F 17.5 °F 21.2 °F 74% 30.58 in 10.0 mi NW 13.8 mph - N/A   Overcast
2:14 AM 28.4 °F 18.5 °F 19.4 °F 69% 30.58 in 10.0 mi WNW 11.5 mph - N/A   Overcast
2:33 AM 28.4 °F 19.1 °F 19.4 °F 69% 30.58 in 10.0 mi WNW 10.4 mph - N/A   Overcast
2:53 AM 28.4 °F 19.7 °F 19.4 °F 69% 30.58 in 10.0 mi NW 9.2 mph - N/A   Overcast
3:14 AM 28.4 °F 22.2 °F 19.4 °F 69% 30.58 in 10.0 mi NW 5.8 mph - N/A   Overcast
3:33 AM 28.4 °F 20.4 °F 19.4 °F 69% 30.59 in 10.0 mi NW 8.1 mph - N/A   Overcast
3:53 AM 28.4 °F 22.2 °F 21.2 °F 74% 30.58 in 10.0 mi NNW 5.8 mph - N/A   Overcast
4:14 AM 28.4 °F 19.7 °F 21.2 °F 74% 30.59 in 10.0 mi NNW 9.2 mph - N/A   Overcast
4:33 AM 26.6 °F 17.5 °F 21.2 °F 80% 30.60 in 10.0 mi NNW 9.2 mph - N/A   Overcast
4:53 AM 26.6 °F 16.2 °F 21.2 °F 80% 30.60 in 10.0 mi NNW 11.5 mph - N/A   Overcast
5:13 AM 26.6 °F 16.8 °F 21.2 °F 80% 30.60 in 10.0 mi NW 10.4 mph - N/A   Overcast
5:33 AM 26.6 °F 17.5 °F 19.4 °F 74% 30.61 in 10.0 mi NW 9.2 mph - N/A   Overcast
5:54 AM 26.6 °F 16.2 °F 21.2 °F 80% 30.61 in 10.0 mi NW 11.5 mph - N/A   Overcast
6:13 AM 26.6 °F 16.8 °F 21.2 °F 80% 30.61 in 10.0 mi NNW 10.4 mph - N/A   Overcast
6:33 AM 26.6 °F 16.8 °F 21.2 °F 80% 30.61 in 10.0 mi NNW 10.4 mph - N/A   Overcast
6:54 AM 26.6 °F 16.8 °F 23.0 °F 86% 30.62 in 10.0 mi NNW 10.4 mph - N/A   Overcast
7:13 AM 26.6 °F 16.8 °F 23.0 °F 86% 30.64 in 7.0 mi NW 10.4 mph - N/A   Overcast
7:33 AM 26.6 °F 17.5 °F 24.8 °F 93% 30.64 in 5.0 mi NW 9.2 mph - N/A Snow Light Snow
8:13 AM 26.6 °F 16.8 °F 24.8 °F 93% 30.64 in 7.0 mi NNW 10.4 mph - N/A Snow Light Snow
8:33 AM 26.6 °F 17.5 °F 24.8 °F 93% 30.65 in 7.0 mi NNW 9.2 mph - N/A   Overcast
8:53 AM 28.4 °F 19.7 °F 24.8 °F 86% 30.65 in 7.0 mi NNW 9.2 mph - N/A   Overcast
9:13 AM 28.4 °F 19.7 °F 24.8 °F 86% 30.65 in 10.0 mi NNW 9.2 mph - N/A Snow Light Snow
9:33 AM 28.4 °F 20.4 °F 24.8 °F 86% 30.65 in 4.0 mi North 8.1 mph - N/A Snow Light Snow
9:54 AM 28.4 °F 20.4 °F 24.8 °F 86% 30.65 in 2.0 mi North 8.1 mph - N/A Snow Light Snow
10:13 AM 28.4 °F 19.1 °F 23.0 °F 80% 30.65 in 4.0 mi North 10.4 mph - N/A Snow Light Snow
10:33 AM 28.4 °F 19.7 °F 23.0 °F 80% 30.65 in 4.0 mi North 9.2 mph - N/A Snow Light Snow
10:54 AM 28.4 °F 20.4 °F 21.2 °F 74% 30.65 in 10.0 mi North 8.1 mph - N/A   Overcast
11:33 AM 30.2 °F 21.9 °F 21.2 °F 69% 30.65 in 10.0 mi North 9.2 mph - N/A   Overcast
11:53 AM 30.2 °F 21.3 °F 21.2 °F 69% 30.65 in 10.0 mi North 10.4 mph - N/A   Overcast
12:13 PM 30.2 °F 22.6 °F 21.2 °F 69% 30.65 in 10.0 mi North 8.1 mph - N/A   Overcast
12:34 PM 30.2 °F 22.6 °F 21.2 °F 69% 30.64 in 10.0 mi NNE 8.1 mph - N/A   Overcast
12:53 PM 30.2 °F 24.3 °F 21.2 °F 69% 30.64 in 10.0 mi NE 5.8 mph - N/A   Overcast
1:13 PM 30.2 °F 22.6 °F 21.2 °F 69% 30.63 in 10.0 mi North 8.1 mph - N/A   Overcast
1:33 PM 30.2 °F 22.6 °F 21.2 °F 69% 30.63 in 10.0 mi North 8.1 mph - N/A   Overcast
1:53 PM 32.0 °F 25.6 °F 21.2 °F 64% 30.62 in 10.0 mi NNE 6.9 mph - N/A   Overcast
2:14 PM 32.0 °F 25.6 °F 21.2 °F 64% 30.62 in 10.0 mi NNE 6.9 mph - N/A   Overcast
2:54 PM 33.8 °F 29.6 °F 21.2 °F 60% 30.61 in 10.0 mi NNE 4.6 mph - N/A   Overcast
3:13 PM 33.8 °F 27.0 °F 21.2 °F 60% 30.61 in 10.0 mi NNE 8.1 mph - N/A   Overcast
3:34 PM 33.8 °F 26.4 °F 19.4 °F 56% 30.60 in 10.0 mi NNE 9.2 mph - N/A   Overcast
3:53 PM 33.8 °F 27.7 °F 21.2 °F 60% 30.60 in 10.0 mi NNE 6.9 mph - N/A   Overcast
4:13 PM 33.8 °F 28.6 °F 21.2 °F 60% 30.59 in 10.0 mi North 5.8 mph - N/A   Overcast
4:33 PM 33.8 °F 27.7 °F 19.4 °F 56% 30.59 in 10.0 mi NNE 6.9 mph - N/A   Overcast
4:53 PM 33.8 °F 27.0 °F 21.2 °F 60% 30.58 in 10.0 mi ENE 8.1 mph - N/A   Overcast
5:13 PM 33.8 °F 27.7 °F 21.2 °F 60% 30.58 in 10.0 mi NNE 6.9 mph - N/A   Overcast
5:33 PM 33.8 °F 27.7 °F 21.2 °F 60% 30.58 in 10.0 mi NE 6.9 mph - N/A   Overcast
5:53 PM 33.8 °F 27.7 °F 21.2 °F 60% 30.58 in 10.0 mi NNE 6.9 mph - N/A   Overcast
6:13 PM 33.8 °F 27.7 °F 21.2 °F 60% 30.58 in 10.0 mi NNE 6.9 mph - N/A   Overcast
6:34 PM 33.8 °F 27.7 °F 21.2 °F 60% 30.58 in 10.0 mi ENE 6.9 mph - N/A   Overcast
6:53 PM 33.8 °F 27.7 °F 21.2 °F 60% 30.58 in 10.0 mi NNE 6.9 mph - N/A   Overcast
7:13 PM 33.8 °F 27.0 °F 21.2 °F 60% 30.57 in 10.0 mi NE 8.1 mph - N/A   Overcast
7:34 PM 33.8 °F 28.6 °F 21.2 °F 60% 30.58 in 10.0 mi NE 5.8 mph 9.2 mph N/A   Overcast
7:53 PM 33.8 °F 27.7 °F 21.2 °F 60% 30.58 in 10.0 mi NE 6.9 mph - N/A   Overcast
8:13 PM 33.8 °F 28.6 °F 21.2 °F 60% 30.58 in 10.0 mi ENE 5.8 mph - N/A   Overcast
8:34 PM 33.8 °F 28.6 °F 21.2 °F 60% 30.58 in 10.0 mi NE 5.8 mph - N/A   Overcast
8:53 PM 33.8 °F 28.6 °F 21.2 °F 60% 30.58 in 10.0 mi NE 5.8 mph - N/A   Overcast
9:13 PM 33.8 °F 27.0 °F 21.2 °F 60% 30.58 in 10.0 mi NE 8.1 mph - N/A   Overcast
9:34 PM 33.8 °F 29.6 °F 21.2 °F 60% 30.57 in 10.0 mi NNE 4.6 mph - N/A   Mostly Cloudy
9:53 PM 33.8 °F 29.6 °F 21.2 °F 60% 30.57 in 10.0 mi NE 4.6 mph - N/A   Overcast
10:13 PM 33.8 °F 30.8 °F 21.2 °F 60% 30.57 in 10.0 mi NE 3.5 mph - N/A   Overcast
10:34 PM 32.0 °F - 21.2 °F 64% 30.56 in 10.0 mi Calm Calm - N/A   Overcast
10:53 PM 32.0 °F - 21.2 °F 64% 30.56 in 10.0 mi Calm Calm - N/A   Overcast
11:13 PM 32.0 °F - 21.2 °F 64% 30.55 in 10.0 mi Calm Calm - N/A   Overcast
11:34 PM 32.0 °F 28.7 °F 21.2 °F 64% 30.55 in 10.0 mi ENE 3.5 mph - N/A   Mostly Cloudy
11:53 PM 30.2 °F - 19.4 °F 64% 30.55 in 10.0 mi Calm Calm - N/A   Clear